Mazatlan Airport, Mexico

1:14 PM MDT on August 18, 2017 (GMT -0600)
Gen Rafael Buelna International

Weather History for MMMZ - October, 2012

Change the Weather History Date:

Saturday, October 20, 2012

  Actual Average Record
Temperature  
Mean Temperature 78 °F -  
Max Temperature 86 °F 86 °F 92 °F (2015)
Min Temperature 71 °F 69 °F 64 °F (2010)
Cooling Degree Days 14    
Growing Degree Days 28 (Base 50)    
Moisture  
Dew Point 72 °F    
Average Humidity 84    
Maximum Humidity 94    
Minimum Humidity 62    
Precipitation  
Precipitation 0.00 in - - ()
Sea Level Pressure  
Sea Level Pressure 29.79 in    
Wind  
Wind Speed 6 mph ()    
Max Wind Speed 8 mph    
Max Gust Speed -    
Visibility 11.0 miles    
Events      
Averages and records for this station are not official NWS values.
T = Trace of Precipitation, MM = Missing Value Source: Averaged Metar Reports

Daily Weather History Graph

Daily Weather History Graph

Search for Another Location

Airport or City:

Trip Planner

Search our weather history database for the weather conditions in past years. The results will help you decide how hot, cold, wet, or windy it might be!

Date:

Astronomy

Oct. 20, 2012 Rise Set
Actual Time 7:04 AM MDT 6:34 PM MDT
Civil Twilight 6:41 AM MDT 6:57 PM MDT
Nautical Twilight 6:15 AM MDT 7:23 PM MDT
Astronomical Twilight 5:49 AM MDT 7:50 PM MDT
Moon 12:23 PM MDT (10/20) 11:40 PM MDT (10/20)
Length of Visible Light 12h 15m
Length of Day
11h 30m
Waxing Crescent, 35% of the Moon is Illuminated
Oct 20
Waxing Crescent
Oct 21
First Quarter
Oct 29
Full
Nov 6
Last Quarter
Nov 13
New

Hourly Weather History & Observations

Time (MDT) Temp. Heat Index Dew Point Humidity Pressure Visibility Wind Dir Wind Speed Gust Speed Precip Events Conditions
12:45 AM 73.4 °F - 71.6 °F 94% 29.80 in 8.0 mi NE 6.9 mph - N/A   Partly Cloudy
1:51 AM 73.4 °F - 71.6 °F 94% 29.80 in 8.0 mi North 6.9 mph - N/A   Clear
2:44 AM 73.4 °F - 71.6 °F 94% 29.79 in 8.0 mi NNE 6.9 mph - N/A   Partly Cloudy
3:43 AM 73.4 °F - 71.6 °F 94% 29.78 in 8.0 mi NNE 6.9 mph - N/A   Partly Cloudy
4:42 AM 71.6 °F - 69.8 °F 94% 29.79 in 8.0 mi NE 6.9 mph - N/A   Partly Cloudy
5:48 AM 73.4 °F - 71.6 °F 94% 29.80 in 8.0 mi NNE 6.9 mph - N/A   Clear
6:47 AM 71.6 °F - 69.8 °F 94% 29.81 in 8.0 mi NNE 6.9 mph - N/A   Partly Cloudy
7:46 AM 73.4 °F - 71.6 °F 94% 29.82 in 7.0 mi NNE 6.9 mph - N/A   Clear
8:42 AM 75.2 °F - 73.4 °F 94% 29.84 in 8.0 mi NNE 6.9 mph - N/A   Clear
9:45 AM 80.6 °F 86.2 °F 75.2 °F 84% 29.84 in 12.0 mi ESE 6.9 mph - N/A   Clear
10:44 AM 82.4 °F 88.2 °F 73.4 °F 74% 29.84 in 15.0 mi SSW 5.8 mph - N/A   Clear
11:41 AM 84.2 °F 90.9 °F 73.4 °F 70% 29.82 in 15.0 mi SSE 8.1 mph - N/A   Partly Cloudy
12:45 PM 84.2 °F 90.9 °F 73.4 °F 70% 29.79 in 15.0 mi South 5.8 mph - N/A   Partly Cloudy
1:44 PM 86.0 °F 93.4 °F 73.4 °F 66% 29.76 in 15.0 mi South 8.1 mph - N/A   Partly Cloudy
2:41 PM 86.0 °F 91.8 °F 71.6 °F 62% 29.74 in 15.0 mi SSW 6.9 mph - N/A   Clear
3:40 PM 84.2 °F 89.6 °F 71.6 °F 66% 29.73 in 15.0 mi SW 6.9 mph - N/A   Clear
4:41 PM 84.2 °F 89.6 °F 71.6 °F 66% 29.73 in 15.0 mi SSW 5.8 mph - N/A   Clear
5:42 PM 82.4 °F 87.2 °F 71.6 °F 70% 29.73 in 15.0 mi SW 5.8 mph - N/A   Clear
6:41 PM 78.8 °F - 73.4 °F 83% 29.74 in 12.0 mi SW 6.9 mph - N/A   Clear
7:40 PM 77.0 °F - 73.4 °F 89% 29.76 in 10.0 mi SSW 5.8 mph - N/A   Clear
8:49 PM 75.2 °F - 69.8 °F 83% 29.77 in 10.0 mi WSW 5.8 mph - N/A   Clear
9:41 PM 75.2 °F - 73.4 °F 94% 29.81 in 10.0 mi NE 5.8 mph - N/A   Clear
10:45 PM 75.2 °F - 73.4 °F 94% 29.82 in 10.0 mi NNE 5.8 mph - N/A   Clear
11:42 PM 73.4 °F - 71.6 °F 94% 29.82 in 10.0 mi NNE 5.8 mph - N/A   Clear